Temp
72 73 72 71 72 72 73 72 72 74 75 77 76 75 79 75 75 74 73 83 82 82 84 84 83 83 83 82 82 82 82 82 82 82 82 82 81 81 81 81 81 81 81
74 73 72 72 72 73 73 72 73 73 77 78 77 77 75 75 76 74 74 75 82 82 83 83 83 83 83 83 83 83 82 82 82 81 81 81 81 81 81 80 81 81 81
74 74 73 73 73 73 73 72 74 74 75 76 76 79 80 79 77 75 72 72 76 82 83 83 83 83 83 83 83 83 82 82 82 81 81 81 80 80 81 81 81 81 81
74 72 73 73 73 73 72 72 72 72 73 72 74 78 79 80 80 77 75 75 74 75 80 82 82 82 82 83 83 83 82 81 81 81 81 81 81 81 80 80 80 80 80
75 73 73 73 74 73 72 73 72 72 72 72 75 76 76 78 79 79 78 77 76 77 77 80 82 82 83 84 83 83 82 82 81 80 81 80 80 80 80 80 79 79 79
75 73 74 74 74 72 72 72 72 72 72 73 78 80 76 76 78 78 77 80 78 78 75 74 76 80 82 83 83 83 82 82 81 81 80 80 80 80 79 79 79 79 79
77 74 74 74 74 73 73 73 73 75 72 72 72 72 74 78 77 78 75 76 79 79 75 74 72 74 76 81 81 82 83 82 82 81 80 79 79 79 79 79 78 79 79
79 76 74 74 74 73 73 73 72 71 71 72 70 69 67 70 72 75 75 75 74 74 75 76 74 73 74 74 79 81 81 82 81 82 81 80 79 79 78 78 78 78 78
78 78 76 75 74 73 72 73 73 72 70 72 72 70 64 63 65 71 71 72 73 73 72 72 73 74 73 72 75 79 80 80 81 82 81 80 79 79 79 78 78 78 78
80 78 78 76 75 73 73 73 75 73 71 69 70 71 73 68 66 66 70 70 71 72 71 71 73 74 74 74 76 77 79 79 80 80 81 80 79 79 79 79 78 78 77
79 79 77 76 75 73 72 73 74 73 72 70 69 69 69 69 69 66 64 66 68 69 69 70 73 71 73 73 74 75 78 79 79 80 80 80 80 80 80 79 79 78 78
79 77 78 75 75 74 74 74 74 73 73 72 71 70 69 68 66 66 65 66 66 70 70 70 72 71 72 72 76 78 77 78 76 77 78 80 79 80 81 81 81 80 79
77 77 77 76 76 76 75 74 74 74 74 73 71 71 70 69 69 68 67 65 65 69 68 69 70 70 71 70 72 76 76 74 74 74 74 75 77 79 79 80 81 81 81
76 78 78 77 77 76 74 74 72 73 74 72 73 71 71 71 72 70 68 67 66 67 67 69 68 69 69 69 71 76 74 74 73 72 71 71 72 73 76 78 78 79 80
79 77 77 75 74 73 73 73 72 72 73 73 72 70 71 72 70 71 70 69 67 65 65 68 68 69 70 69 71 72 71 73 73 73 72 71 71 72 73 74 76 76 76
78 77 76 75 76 73 71 71 71 73 72 71 72 71 70 70 71 71 70 69 68 67 64 68 69 71 70 71 71 72 71 73 73 72 71 71 71 72 72 72 73 74 75
77 76 75 73 73 73 74 73 72 72 71 71 71 71 70 71 70 70 70 69 67 67 65 67 69 70 69 68 70 71 71 69 69 71 72 72 71 70 71 72 72 72 72
77 75 73 72 71 72 74 73 72 72 71 70 71 70 70 72 69 69 68 68 68 68 66 64 66 68 67 68 68 67 70 72 70 72 70 71 70 70 69 69 69 69 69
74 74 73 73 73 73 72 72 71 70 71 71 70 70 69 69 68 67 66 67 67 68 67 65 65 67 68 67 67 67 68 68 70 72 70 71 70 68 68 66 66 66 65
73 73 74 73 71 69 68 68 69 69 70 70 70 70 69 68 67 66 66 66 66 66 65 65 65 65 65 67 65 65 65 67 67 72 70 68 67 66 66 65 66 66 63
74 73 72 69 68 67 67 66 68 69 69 68 69 69 68 70 71 69 67 66 66 68 64 63 63 63 63 62 62 63 63 64 65 67 65 64 62 61 61 62 64 65 64
72 71 70 68 66 68 66 69 69 69 68 68 68 67 67 66 66 68 69 69 68 65 63 62 61 62 63 63 64 63 63 64 62 66 66 60 62 59 61 62 63 63 62
71 70 68 66 65 65 66 67 70 67 67 67 65 65 66 67 64 64 68 69 68 69 68 64 61 61 63 61 61 64 61 63 63 63 65 58 59 58 59 61 62 62 61
71 68 66 65 64 64 65 66 70 67 66 65 65 64 63 62 60 63 66 66 66 66 66 66 64 63 64 64 61 61 60 59 65 63 63 58 58 56 58 58 61 60 59
70 68 68 66 65 64 62 64 68 68 66 65 65 64 63 62 60 63 64 64 63 64 66 65 66 65 66 66 65 60 58 56 55 61 60 60 57 56 57 57 58 60 58
69 69 68 67 66 65 60 63 65 68 66 65 64 64 64 61 58 60 63 62 62 62 64 65 65 67 65 65 65 61 58 55 54 54 58 59 57 57 54 57 57 57 57
MSLP
1016.59 1016.59 1016.87 1017.17 1017.29 1017.32 1017.44 1017.65 1017.77 1017.84 1017.89 1017.86 1017.81 1017.92 1017.89 1018.20 1018.26 1018.38 1018.50 1018.36 1018.50 1018.72 1019.15 1019.36 1019.47 1019.65 1019.83 1020.09 1020.37 1020.57 1020.73 1020.94 1021.07 1021.09 1021.20 1021.36 1021.51 1021.66 1021.76 1021.83 1021.90 1022.02 1022.11
1016.19 1016.48 1016.67 1016.97 1017.07 1017.14 1017.25 1017.49 1017.68 1017.75 1017.64 1017.67 1017.62 1017.67 1017.80 1017.90 1017.99 1018.29 1018.24 1018.56 1018.56 1018.69 1018.83 1019.01 1019.23 1019.38 1019.67 1019.82 1020.04 1020.21 1020.34 1020.51 1020.74 1020.88 1020.96 1021.13 1021.34 1021.43 1021.60 1021.69 1021.72 1021.85 1021.95
1015.80 1016.14 1016.33 1016.64 1016.64 1016.82 1017.05 1017.34 1017.50 1017.56 1017.65 1017.55 1017.66 1017.29 1017.11 1017.21 1017.49 1017.77 1018.14 1018.42 1018.35 1018.38 1018.56 1018.66 1018.78 1018.92 1019.22 1019.39 1019.54 1019.71 1019.89 1020.08 1020.12 1020.41 1020.65 1020.79 1021.03 1021.24 1021.28 1021.36 1021.51 1021.63 1021.72
1015.69 1016.27 1016.24 1016.35 1016.28 1016.60 1016.95 1017.24 1017.50 1017.61 1017.60 1017.59 1017.57 1017.28 1017.21 1017.02 1017.04 1017.30 1017.42 1017.73 1017.89 1017.89 1018.13 1018.26 1018.27 1018.32 1018.62 1018.81 1018.86 1019.05 1019.31 1019.58 1019.72 1019.92 1020.16 1020.33 1020.49 1020.75 1020.98 1021.08 1021.23 1021.40 1021.55
1015.51 1016.06 1015.99 1015.94 1016.05 1016.35 1016.78 1017.24 1017.50 1017.61 1017.57 1017.61 1017.49 1017.14 1016.94 1016.97 1016.85 1016.98 1016.79 1016.99 1017.16 1017.31 1017.43 1017.45 1017.66 1017.80 1018.01 1018.15 1018.35 1018.49 1018.69 1018.90 1019.19 1019.49 1019.73 1019.88 1020.04 1020.22 1020.52 1020.71 1020.86 1021.04 1021.24
1015.48 1016.00 1015.83 1015.70 1015.89 1016.40 1016.76 1017.14 1017.42 1017.50 1017.55 1017.50 1017.50 1017.18 1017.02 1016.73 1016.64 1016.65 1016.74 1016.54 1016.60 1016.52 1016.79 1016.89 1016.99 1017.35 1017.31 1017.46 1017.58 1017.82 1018.05 1018.29 1018.50 1018.83 1019.15 1019.38 1019.55 1019.74 1019.99 1020.29 1020.48 1020.70 1020.87
1015.43 1015.84 1015.62 1015.62 1015.84 1016.31 1016.57 1016.85 1017.08 1017.10 1017.28 1017.30 1017.53 1017.25 1016.91 1016.42 1016.33 1016.23 1016.16 1016.33 1016.07 1016.04 1016.19 1016.49 1016.83 1017.12 1017.12 1016.96 1016.96 1017.02 1017.25 1017.45 1017.74 1018.11 1018.50 1018.71 1018.94 1019.16 1019.35 1019.64 1019.88 1020.07 1020.25
1014.68 1015.08 1015.19 1015.51 1015.77 1016.15 1016.48 1016.63 1016.71 1016.99 1017.04 1017.03 1017.37 1017.44 1017.24 1016.69 1016.23 1015.76 1015.70 1015.84 1015.77 1015.57 1015.79 1016.03 1016.38 1016.42 1016.44 1016.63 1016.47 1016.23 1016.27 1016.46 1016.66 1017.11 1017.46 1017.83 1018.16 1018.52 1018.69 1018.99 1019.17 1019.38 1019.62
1014.39 1014.59 1014.81 1015.00 1015.37 1015.73 1016.10 1016.30 1016.40 1016.72 1016.93 1016.76 1016.78 1017.01 1017.19 1017.12 1016.90 1015.95 1015.65 1015.46 1015.34 1015.40 1015.41 1015.46 1015.41 1015.53 1015.68 1015.90 1015.99 1015.73 1015.56 1015.72 1015.95 1016.23 1016.66 1016.99 1017.25 1017.60 1017.89 1018.15 1018.41 1018.66 1018.86
1014.06 1014.29 1014.45 1014.65 1015.08 1015.49 1015.83 1015.90 1016.13 1016.36 1016.60 1016.67 1016.64 1016.30 1016.22 1016.49 1016.70 1016.58 1015.88 1015.38 1015.21 1015.20 1015.31 1015.28 1014.90 1014.79 1015.01 1014.98 1014.98 1015.07 1015.07 1015.08 1015.26 1015.59 1015.80 1016.21 1016.62 1016.81 1016.94 1017.17 1017.42 1017.75 1018.04
1013.91 1014.12 1014.35 1014.77 1015.28 1015.68 1015.78 1015.70 1015.80 1015.88 1015.94 1016.21 1016.22 1016.17 1016.22 1016.21 1016.30 1016.68 1016.51 1015.86 1015.47 1015.02 1014.85 1014.66 1014.44 1014.51 1013.82 1013.95 1014.20 1014.30 1014.43 1014.51 1014.43 1014.54 1014.77 1015.13 1015.47 1015.92 1016.15 1016.36 1016.56 1016.73 1017.03
1014.03 1013.83 1014.23 1014.75 1014.77 1015.05 1015.12 1015.14 1014.91 1015.04 1015.22 1015.38 1015.56 1015.77 1015.94 1016.15 1016.12 1016.25 1016.26 1015.82 1015.45 1014.89 1014.53 1014.19 1014.03 1013.86 1013.69 1013.56 1013.79 1013.55 1013.55 1013.65 1013.48 1013.59 1013.95 1014.21 1014.51 1014.63 1014.93 1015.34 1015.67 1015.89 1016.20
1014.07 1014.09 1014.17 1014.33 1014.45 1014.28 1014.26 1014.56 1014.89 1015.02 1014.85 1014.94 1015.08 1015.00 1015.11 1015.38 1015.46 1015.54 1015.69 1015.46 1015.55 1014.83 1014.44 1013.99 1013.58 1013.41 1013.55 1013.50 1013.53 1013.72 1013.68 1013.51 1013.12 1012.94 1012.97 1013.70 1014.01 1014.09 1014.15 1014.31 1014.65 1014.97 1015.09
1013.57 1013.81 1014.00 1014.00 1013.79 1013.68 1014.11 1014.17 1014.01 1014.31 1014.43 1014.47 1014.44 1014.46 1014.51 1014.28 1014.76 1015.40 1015.15 1015.16 1014.98 1014.82 1014.59 1014.12 1013.43 1013.20 1013.18 1013.30 1013.11 1013.05 1013.28 1013.36 1013.31 1012.82 1012.62 1012.65 1013.26 1013.70 1013.92 1013.66 1013.70 1014.05 1014.25
1013.66 1013.77 1013.90 1013.92 1013.88 1014.19 1014.44 1014.35 1014.15 1014.34 1014.15 1014.13 1014.19 1014.54 1014.34 1014.01 1014.63 1015.05 1014.85 1014.47 1014.51 1014.76 1014.35 1013.74 1013.66 1013.11 1013.24 1013.26 1013.05 1012.82 1012.65 1012.22 1012.31 1012.35 1012.15 1012.25 1012.31 1012.71 1013.02 1012.92 1012.85 1012.99 1013.31
1013.46 1013.63 1013.79 1013.96 1014.14 1014.41 1014.46 1014.36 1014.26 1014.10 1014.06 1014.13 1014.25 1014.34 1014.49 1014.27 1014.23 1014.11 1014.17 1014.26 1014.28 1014.33 1014.28 1013.64 1013.32 1013.01 1012.74 1012.69 1012.53 1012.36 1011.90 1011.53 1011.61 1011.81 1011.82 1011.00 1011.48 1011.68 1012.07 1012.03 1012.26 1012.37 1012.39
1013.41 1013.80 1013.98 1014.22 1014.33 1014.47 1014.38 1014.39 1014.42 1014.22 1014.20 1014.23 1014.30 1014.44 1014.35 1014.26 1014.22 1014.15 1014.05 1014.04 1014.07 1013.96 1014.12 1013.77 1013.38 1012.88 1012.70 1012.72 1012.58 1012.33 1011.83 1011.78 1011.75 1011.51 1011.15 1010.82 1011.34 1011.52 1011.50 1011.56 1011.44 1011.72 1011.70
1013.36 1013.32 1013.85 1014.47 1014.64 1014.58 1014.48 1014.47 1014.59 1014.51 1014.39 1014.26 1014.32 1014.28 1014.29 1014.10 1014.16 1014.10 1014.02 1014.05 1013.92 1013.83 1013.97 1013.84 1013.60 1013.10 1012.72 1012.28 1012.41 1012.50 1012.09 1011.71 1011.66 1011.48 1011.19 1010.96 1010.97 1011.02 1011.26 1011.35 1011.21 1011.21 1011.45
1012.96 1013.40 1013.71 1014.07 1014.47 1014.72 1014.73 1014.79 1014.85 1014.81 1014.59 1014.35 1014.30 1014.30 1014.35 1014.13 1014.13 1014.18 1014.16 1014.33 1014.34 1014.16 1014.03 1013.97 1013.86 1013.54 1013.14 1012.88 1012.65 1012.50 1012.15 1011.90 1011.60 1011.15 1010.86 1010.53 1010.52 1011.06 1011.31 1011.10 1011.12 1011.04 1010.84
1012.90 1012.78 1013.52 1014.13 1014.66 1014.90 1015.06 1015.17 1015.09 1014.84 1014.63 1014.46 1014.46 1014.53 1014.47 1014.54 1014.48 1014.39 1014.38 1014.37 1014.36 1014.21 1014.13 1014.11 1014.06 1013.94 1013.69 1013.34 1013.17 1013.00 1012.56 1012.08 1011.65 1011.23 1011.22 1011.27 1011.46 1011.60 1011.51 1011.47 1011.03 1010.78 1010.74
1012.94 1013.56 1013.72 1014.47 1014.85 1015.17 1015.44 1015.27 1015.09 1014.95 1014.87 1014.84 1014.89 1014.98 1014.92 1014.86 1014.55 1014.37 1014.37 1014.30 1014.35 1014.34 1014.38 1014.36 1014.47 1014.44 1014.33 1014.13 1013.83 1013.45 1013.02 1012.40 1011.96 1011.78 1012.08 1012.29 1012.27 1012.12 1011.87 1011.67 1011.42 1010.98 1010.49
1013.38 1013.75 1014.27 1014.77 1015.28 1015.66 1015.67 1015.33 1015.22 1015.26 1015.24 1015.10 1015.29 1015.34 1015.17 1015.11 1014.82 1014.64 1014.44 1014.31 1014.34 1014.52 1014.57 1014.68 1014.91 1014.89 1014.67 1014.48 1014.16 1013.78 1013.38 1012.85 1012.39 1011.89 1012.04 1012.86 1012.86 1012.73 1012.46 1012.06 1011.61 1010.97 1010.26
1013.76 1014.38 1014.79 1015.12 1015.65 1015.81 1015.62 1015.37 1015.40 1015.51 1015.31 1015.55 1015.78 1015.73 1015.63 1015.46 1015.15 1014.88 1014.60 1014.49 1014.55 1014.55 1014.56 1014.61 1014.97 1015.03 1014.72 1014.57 1014.26 1013.85 1013.62 1013.23 1013.01 1012.73 1012.22 1013.06 1013.39 1013.32 1013.09 1012.62 1011.92 1011.20 1010.16
1014.06 1014.59 1015.09 1015.55 1015.73 1015.77 1015.54 1015.49 1015.61 1015.71 1015.81 1016.03 1016.11 1016.04 1015.88 1015.72 1015.51 1015.24 1015.00 1015.03 1015.04 1014.90 1014.78 1014.74 1014.72 1014.79 1014.65 1014.53 1014.32 1014.17 1013.77 1013.38 1013.08 1013.04 1012.69 1013.50 1013.97 1013.93 1013.66 1013.31 1012.70 1011.82 1011.11
1014.43 1014.77 1015.24 1015.61 1015.63 1015.72 1015.57 1015.51 1015.57 1015.76 1015.99 1016.20 1016.27 1016.18 1016.05 1015.95 1015.82 1015.60 1015.43 1015.47 1015.38 1015.19 1014.82 1014.65 1014.64 1014.71 1014.66 1014.48 1014.29 1014.16 1014.00 1013.84 1013.65 1013.46 1013.60 1013.62 1014.21 1014.36 1014.29 1014.08 1013.77 1013.24 1012.76
1014.50 1014.95 1015.41 1015.39 1015.52 1015.66 1015.53 1015.32 1015.39 1015.67 1016.10 1016.39 1016.40 1016.29 1016.06 1015.98 1015.95 1015.84 1015.85 1015.83 1015.59 1015.47 1015.17 1014.98 1014.92 1014.82 1014.77 1014.83 1014.65 1014.60 1014.53 1014.42 1014.26 1013.95 1013.85 1013.70 1013.99 1014.17 1014.80 1015.03 1014.84 1014.57 1014.34
Wind_Speed
3 3 3 3 4 3 4 4 4 4 4 6 5 6 4 5 5 2 3 19 19 19 17 18 18 18 18 16 16 16 15 14 13 14 14 14 14 14 14 14 13 12 11
3 3 3 4 4 4 4 4 4 4 5 4 6 6 6 5 6 6 5 6 16 17 18 18 18 18 18 17 17 17 17 16 16 15 14 14 14 14 14 14 14 14 13
6 4 4 5 6 4 5 4 4 4 5 4 5 6 5 6 5 8 5 4 6 17 17 19 19 18 18 19 19 18 17 16 17 17 16 15 15 16 15 14 14 14 13
7 4 4 5 5 4 4 3 4 3 4 3 3 4 4 5 8 9 8 8 7 5 10 19 21 20 21 22 20 20 19 19 18 18 18 18 17 17 18 16 16 15 14
6 6 4 4 5 4 4 3 3 3 2 2 4 4 4 4 5 6 10 10 10 9 7 13 21 20 23 24 22 21 21 20 20 20 19 19 19 18 18 19 18 16 16
6 4 4 4 4 3 3 3 4 3 3 3 3 4 4 5 4 6 8 7 8 12 7 8 7 10 22 23 23 22 22 22 21 21 21 21 20 19 19 19 19 18 17
10 8 4 4 4 4 5 4 3 3 3 1 2 3 4 6 6 6 5 7 8 8 8 7 5 6 7 23 24 24 24 23 24 21 22 22 22 21 20 19 19 19 19
10 6 6 5 5 4 5 5 5 3 2 3 3 1 3 4 3 5 4 6 8 4 4 4 7 10 8 8 14 25 25 26 25 24 24 23 23 22 21 20 20 20 19
7 7 7 6 6 5 4 4 5 5 3 2 5 4 1 4 1 2 4 4 5 4 4 4 6 9 10 8 13 16 25 25 25 25 25 24 23 23 23 22 22 21 21
6 5 6 6 6 4 5 5 4 4 3 4 2 4 3 4 3 4 3 4 4 5 4 4 6 5 5 7 13 17 19 21 23 24 26 25 24 23 24 24 23 22 22
5 5 6 5 4 2 3 4 4 5 4 3 4 2 3 3 2 3 4 5 3 4 4 6 5 5 7 6 8 11 21 20 21 23 24 25 25 25 25 24 25 24 24
3 5 5 5 5 5 6 6 6 7 6 5 3 4 4 3 3 3 4 5 5 3 4 6 6 4 4 3 6 13 19 16 11 17 17 21 25 26 27 26 26 25 26
3 4 5 5 4 6 6 4 3 4 4 4 5 5 4 4 3 3 2 3 3 3 3 3 4 3 3 4 5 11 7 12 10 8 6 10 16 22 24 25 25 26 27
3 6 5 6 5 4 5 3 2 2 4 4 6 4 3 2 4 3 3 3 2 1 2 5 3 5 3 3 9 16 7 11 11 11 9 10 8 12 21 24 26 26 26
1 5 6 6 6 4 2 2 1 5 3 3 4 1 4 2 3 4 5 3 3 2 2 3 3 5 3 4 8 6 8 14 11 8 7 5 4 8 17 19 23 23 25
4 6 6 5 4 3 2 3 3 3 2 3 3 4 2 2 2 2 2 1 2 3 2 2 4 4 5 5 7 6 9 15 11 9 8 5 11 17 14 13 18 21 20
4 5 5 5 1 2 1 0 1 4 5 4 4 4 3 2 2 2 2 2 1 2 2 3 2 3 3 4 6 7 7 6 5 13 9 4 10 14 18 21 23 24 19
5 8 5 6 3 3 3 2 4 4 4 5 5 5 4 2 4 3 2 4 3 1 1 2 2 3 4 3 4 5 7 5 4 8 10 12 15 19 20 20 21 18 15
6 7 6 6 4 0 4 5 3 3 2 3 4 4 4 3 4 3 4 4 3 3 2 1 3 2 2 3 2 3 4 5 5 14 17 20 16 9 9 8 11 13 13
6 6 6 6 6 5 5 3 3 5 4 5 5 5 5 5 4 3 4 3 3 3 3 2 2 2 2 2 2 2 3 2 5 4 11 14 13 14 14 12 11 11 9
8 6 8 7 6 5 3 3 4 5 5 6 6 5 5 7 8 5 2 3 3 2 3 3 3 3 4 3 4 3 3 4 2 3 4 6 5 5 8 11 12 15 13
6 8 7 7 6 3 2 6 6 5 4 6 5 5 5 8 7 7 7 4 3 2 2 2 2 4 6 4 4 3 3 3 3 4 2 5 5 6 8 9 19 17 13
7 7 6 7 5 3 3 7 7 4 5 5 4 3 3 4 6 5 7 8 6 5 5 3 3 2 3 3 4 6 3 3 2 5 2 3 4 6 5 8 18 16 12
8 6 6 6 4 1 4 6 5 5 5 4 3 3 4 5 7 6 5 7 6 5 4 3 4 1 2 3 3 3 3 3 2 5 6 3 2 6 6 7 21 22 21
6 5 5 6 5 2 2 3 4 5 4 5 4 4 4 5 8 9 6 6 5 5 2 4 4 2 4 7 7 3 5 4 2 1 5 1 2 4 5 7 8 22 22
5 5 5 5 6 4 2 2 4 4 4 2 1 2 4 5 6 8 6 4 5 2 1 1 2 1 3 6 9 5 3 4 2 2 3 4 2 2 3 4 6 6 8
Wind_Direction
228 206 202 202 209 196 192 200 205 218 225 236 239 224 215 193 201 187 201 197 197 196 205 203 203 200 202 199 203 204 207 211 213 213 210 215 217 212 213 215 214 213 212
219 210 197 208 209 200 200 199 205 215 234 223 238 231 219 198 193 182 169 222 213 206 211 208 209 207 210 208 207 211 209 211 215 220 223 216 218 215 218 223 216 215 214
253 235 202 206 209 199 191 205 228 233 243 235 237 239 221 214 183 186 195 205 215 223 222 214 211 211 213 215 212 215 215 218 213 215 219 226 218 221 220 218 222 221 220
231 247 234 209 196 187 180 197 219 258 244 204 244 248 220 210 202 191 193 204 207 204 231 228 219 214 213 217 218 216 219 219 220 219 220 222 224 222 222 220 219 221 222
226 224 220 206 184 188 183 201 219 198 239 212 254 270 263 216 208 198 202 204 207 208 216 231 230 220 219 221 222 221 220 221 219 223 224 224 224 224 224 222 222 222 223
218 197 226 189 170 166 185 198 215 217 223 225 256 273 267 267 204 197 219 217 220 221 220 205 223 234 228 225 224 224 225 226 223 222 224 225 224 225 225 228 226 228 228
195 206 184 171 168 173 194 199 197 236 252 178 316 296 271 243 223 221 196 217 223 216 207 215 208 238 244 232 227 228 227 227 228 228 229 226 226 224 224 225 225 225 228
187 180 176 178 179 173 207 202 190 202 228 172 190 277 291 324 306 240 223 223 220 191 211 186 215 227 220 231 234 232 229 226 225 226 226 225 226 226 223 223 224 224 226
169 177 183 171 182 181 203 203 187 186 216 239 190 172 260 233 321 312 271 242 230 205 180 187 223 218 216 219 234 242 235 234 232 227 227 226 223 223 223 223 223 224 225
186 174 182 183 181 178 196 208 184 202 181 246 269 237 222 185 190 306 303 272 253 249 219 216 229 217 214 221 218 228 238 234 235 234 233 228 227 223 221 222 222 221 223
201 204 182 174 183 191 218 228 210 208 204 209 197 251 237 262 224 199 272 284 308 259 237 232 229 214 212 207 225 229 238 235 236 237 240 230 223 226 227 227 226 222 222
241 199 161 176 185 200 203 211 218 211 217 219 214 216 213 215 244 208 239 260 244 247 229 238 234 219 264 236 258 238 232 232 227 240 247 242 229 221 223 230 231 228 227
237 203 182 183 188 198 202 204 249 262 241 211 214 228 199 222 201 218 215 251 244 273 277 274 255 221 214 262 267 260 247 199 177 140 167 248 262 246 228 228 233 234 231
250 160 171 196 200 172 160 183 210 278 292 259 247 252 202 170 260 308 275 208 283 269 278 254 259 248 238 250 268 274 259 241 234 206 184 191 231 270 268 245 231 233 234
201 159 167 168 191 150 115 344 334 286 294 310 298 266 273 237 245 252 226 189 176 267 260 259 259 224 199 232 243 247 274 274 271 227 204 200 267 287 266 261 248 233 236
195 170 162 190 219 133 290 316 307 302 3 343 339 350 312 308 359 8 345 217 205 184 260 228 250 248 198 214 236 228 263 276 299 289 297 4 323 319 281 266 267 257 240
169 159 191 193 208 2 302 47 357 35 23 3 0 12 355 9 8 23 22 314 192 161 222 301 270 259 262 197 228 248 262 271 274 261 253 292 278 265 255 249 246 250 242
156 180 136 122 136 275 317 24 40 15 5 359 342 357 354 11 32 39 44 12 10 106 190 288 279 311 262 266 215 241 259 259 271 276 278 268 261 251 245 247 240 244 251
128 127 131 136 134 292 66 50 44 350 333 17 12 20 358 34 55 23 30 38 19 17 30 356 327 312 318 355 333 289 283 283 279 269 262 263 270 303 276 302 277 261 250
144 131 120 110 99 75 50 32 12 8 39 41 32 34 55 51 60 48 53 48 46 37 26 34 2 346 344 345 344 315 327 301 286 25 53 52 49 36 24 357 355 347 312
141 116 104 92 83 72 45 58 42 40 54 61 60 60 45 43 45 43 57 18 38 21 37 29 30 25 13 350 353 318 301 307 297 32 65 34 27 15 12 1 350 334 312
101 106 98 102 92 77 83 53 55 74 69 64 61 41 40 34 28 30 8 356 172 112 74 57 24 39 14 4 336 318 313 323 342 34 15 61 22 25 6 2 346 340 320
120 112 111 108 116 129 50 48 54 66 76 64 69 54 37 26 24 19 14 58 66 59 82 114 95 49 2 337 310 350 329 319 42 329 307 77 11 32 9 9 12 12 2
127 126 120 125 132 117 41 42 119 94 83 72 58 59 59 34 25 12 55 56 58 52 108 107 112 141 339 7 8 312 293 297 189 38 16 73 23 35 19 25 40 47 48
123 126 140 153 135 113 16 23 124 118 91 65 37 35 60 57 31 24 66 70 54 34 63 123 141 170 47 45 38 359 11 26 337 58 27 69 110 81 41 29 31 51 52
128 131 149 145 150 148 227 301 151 145 138 138 348 357 48 66 52 46 65 51 59 354 307 259 355 246 43 50 42 37 5 33 337 344 17 332 142 143 65 9 26 33 51